User: anonymous   Login
Location: Prairie State College
(41.5244°N, 87.6382°W)
Time: 22:31:09
(UTC-05:00)
Language:

Cosmos 1943 - Orbit

View from above orbital plane
View from above orbital plane
View from above satellite
View from above satellite

Ground track
Ground track

The orbit data is extracted from the following two-line orbital elements,

1 19119U 88039A   16211.90516113  .00000122  00000-0  87248-4 0  9994
2 19119  71.0034  58.5646 0011926 197.9812 256.5276 14.15071839456500
Epoch (UTC): 29 July 2016 21:43:25
Eccentricity: 0.0011926
inclination: 71.0034°
perigee height: 833 km
apogee height: 850 km
right ascension of ascending node: 58.5646°
argument of perigee: 197.9812°
revolutions per day: 14.15071839
mean anomaly at epoch: 256.5276°
orbit number at epoch: 45650

The dashed part of the orbit path shows where the satellite is in the earth's shadow,  

DLR